SL-16 DEB, 22620

Orbit data source: Space-Track

SL-16 DEB, 22620 is space debris in LEO originally from a launch on Fri, 26 Mar 1993 UTC launched from the Tyuratam Missile And Space Complex (TTMTR). Debris objects in space refer to the collection of defunct objects orbiting the Earth. Examples of debris include non-operational satellites, rocket bodies, and fragments generated from explosions, collisions, or faulty payload assembly.

Loading next visibility...
SL-16 DEB details
Identifier
22620, 1993-016AE
Orbit
LEO
Last TLE update6 hours ago
Origin
Flag of CISRVSN RF (CIS)
ManufacturerUnknown
MissionSpacecraft
Bus & MotorUnknown
MassUnknown
Launch date (UTC)
1993-03-26 (32 years ago)
Launch vehicleUnknown
Launch site
Tyuratam Missile And Space Complex (TTMTR)
Object type
Payload
Rocket body
Debris
Shape & HBRUnknown
Radar Cross SectionMedium (>0.1 m² and <1 m²)

Expand to show TLE details & history

TLE from 6 hours ago
0 SL-16 DEB
1 22620U 93016AE  24361.27528128  .00000091  00000-0  11347-3 0  9991
2 22620  71.0046 188.9795 0136545 268.3636 266.2896 13.84053462603102
Epoch: 2024-12-26T06:36Z
Definitive object data (Epoch: 2024-12-26T06:36:24.302Z)
Latitude6.46286°
Longitude172.39806°
Altitude959.139 km
Speed7.369 km/s
True Right ascension00h 27m 01s
True Declination6° 25' 32"
Sunlit
Object was in daylight at TLE epoch
Visualization TLE readout
Latitude-27.61727°
Longitude-16.19338°
Altitude912.606 km
Speed7.418 km/s
Apparent Right ascension11h 45m 35s
Apparent Declination-78° 05' 58"
Sunlit
Object is in daylight
Visualization observer readout
Local Sidereal Time11:54:55
Azimuth180.545° SSW
Elevation-28.024°
Doppler factor1
Orbital elements
Apogee altitude1,047.527 km
Perigee altitude847.471 km
Semi-major axis7,325.636 km
Eccentricity0.0136545
Inclination71.0046°
RAAN188.9795°
Arg. of periapsis268.3636°
True anomaly264.7301°
Mean anomaly266.2896°
Eccentric anomaly265.50966°
Mean motion3.46159 °/min
BSTAR0.00011347
Orbital period104 mins
Loading maneuver chart data...
Loading historical data...
Loading historical data...
Loading historical data...
Loading historical data...
Loading historical data...
Loading historical data...
Loading historical data...

SL-16 DEB Visibility forecast

Observer location: undefined°, undefined

Span
Click to sort rows by Start time (UTC) header in descending order
Start Az.
Max El. time (UTC)
Max El. Az.
Max El.
End time (UTC)
End Az.
8 mins2024-12-26 12:49:23.280Z136.302° SSE2024-12-26 12:53:23.280Z93.18° ESE19.09°2024-12-26 12:57:23.280Z54.698° ENE
11 mins2024-12-26 14:34:23.280Z218.197° SW2024-12-26 14:38:23.280Z275.471° WNW42.002°2024-12-26 14:45:23.280Z17.975° NNE
4 mins2024-12-26 16:25:23.280Z305.133° NW2024-12-26 16:26:23.280Z314.745° NW12.954°2024-12-26 16:29:23.280Z342.329° N
5 mins2024-12-26 21:56:23.280Z22.314° NNE2024-12-26 21:58:23.280Z41.604° NE14.186°2024-12-26 22:01:23.280Z70.702° E
11 mins2024-12-26 23:41:23.280Z342.687° N2024-12-26 23:46:23.280Z67.345° ENE43.754°2024-12-26 23:52:23.280Z150.095° SSE
6 mins2024-12-27 01:29:23.280Z290.777° WNW2024-12-27 01:32:23.280Z258.972° W16.825°2024-12-27 01:35:23.280Z228.8° WSW
|